Date String (YYYY-MM-DD hh:mm:ss) UTC,Instrument flags,Ambient pressure (hPa),Sample flow (lpm),Bypass flow (lpm),Sample temperature (°C),Ambient temperature (°C),ASC tube jacket temperature (°C),LED temperature (°C),Box temperature (°C),Sample RH (%),Span deviation,Mass concentration (μg/m³),Mass concentration (μg/m³),Mass concentration (μg/m³)
DateTimeUTC,F1_M11,P_M11,Q1_M11,Q2_M11,T1_M11,T2_M11,T3_M11,T4_M11,T5_M11,U1_M11,ZSPAN_M11,X0_M11,X2_M11,X1_M11
2022-09-16 06:00:00,,0828.1,4.99,0.00,30.4,29.1,00.0,39.2,32.2,22.9,0000.0,0011.12,0003.48,0002.81
2022-09-16 06:01:00,,0828.1,5.01,0.00,30.4,29.1,00.0,39.2,32.3,22.9,0000.0,0011.41,0003.47,0002.81
2022-09-16 06:02:00,,0828.1,4.99,0.00,30.5,29.1,00.0,39.2,32.3,22.9,0000.0,0011.36,0003.45,0002.81
2022-09-16 06:03:00,,0828.2,5.00,0.00,30.5,29.1,00.0,39.2,32.3,22.9,0000.0,0011.05,0003.43,0002.81
2022-09-16 06:04:00,,0828.1,4.99,0.00,30.5,29.2,00.0,39.2,32.3,22.8,0000.0,0012.45,0003.42,0002.83
2022-09-16 06:05:00,,0828.3,5.01,0.00,30.5,29.1,00.0,39.2,32.3,22.7,0000.0,0011.91,0003.41,0002.82
2022-09-16 06:06:00,,0828.2,4.99,0.00,30.5,29.2,00.0,39.2,32.3,22.7,0000.0,0011.87,0003.39,0002.81
2022-09-16 06:07:00,,0828.2,5.01,0.00,30.5,29.2,00.0,39.2,32.3,22.7,0000.0,0012.01,0003.42,0002.80
2022-09-16 06:08:00,,0828.1,4.99,0.00,30.5,29.2,00.0,39.3,32.3,22.8,0000.0,0012.19,0003.44,0002.82
2022-09-16 06:09:00,,0828.1,4.99,0.00,30.5,29.2,00.0,39.3,32.3,22.7,0000.0,0012.30,0003.44,0002.84
2022-09-16 06:10:00,,0828.2,5.00,0.00,30.5,29.2,00.0,39.3,32.3,22.9,0000.0,0011.45,0003.45,0002.85
2022-09-16 06:11:00,,0828.2,4.99,0.00,30.5,29.2,00.0,39.3,32.3,23.2,0000.0,0010.75,0003.45,0002.86
2022-09-16 06:12:00,,0828.2,5.01,0.00,30.5,29.2,00.0,39.3,32.3,23.1,0000.0,0010.44,0003.47,0002.89
2022-09-16 06:13:00,,0828.2,4.99,0.00,30.6,29.2,00.0,39.3,32.4,23.3,0000.0,0010.02,0003.47,0002.89
2022-09-16 06:14:00,,0828.2,5.01,0.00,30.6,29.2,00.0,39.3,32.4,23.1,0000.0,0009.36,0003.45,0002.90
2022-09-16 06:15:00,,0828.2,5.00,0.00,30.6,29.2,00.0,39.3,32.4,23.1,0000.0,0007.94,0003.47,0002.92
2022-09-16 06:16:00,,0828.1,5.00,0.00,30.6,29.2,00.0,39.3,32.4,23.5,0000.0,0007.83,0003.51,0002.95
2022-09-16 06:17:00,,0828.1,5.01,0.00,30.6,29.2,00.0,39.3,32.4,23.7,0000.0,0007.74,0003.53,0002.99
2022-09-16 06:18:00,,0828.1,5.01,0.00,30.6,29.2,00.0,39.4,32.4,23.6,0000.0,0007.69,0003.54,0003.03
2022-09-16 06:19:00,,0828.1,4.99,0.00,30.6,29.2,00.0,39.3,32.4,23.7,0000.0,0007.58,0003.56,0003.07
2022-09-16 06:20:00,,0828.1,5.01,0.00,30.6,29.2,00.0,39.4,32.4,23.8,0000.0,0007.53,0003.61,0003.11
2022-09-16 06:21:00,,0828.1,5.00,0.00,30.6,29.2,00.0,39.4,32.4,23.7,0000.0,0007.55,0003.60,0003.13
2022-09-16 06:22:00,,0828.0,5.00,0.00,30.6,29.2,00.0,39.4,32.4,23.7,0000.0,0007.64,0003.64,0003.15
2022-09-16 06:23:00,,0828.0,4.99,0.00,30.6,29.2,00.0,39.4,32.4,23.4,0000.0,0007.70,0003.66,0003.16
2022-09-16 06:24:00,,0828.1,5.01,0.00,30.6,29.2,00.0,39.4,32.4,23.2,0000.0,0008.27,0003.67,0003.17
2022-09-16 06:25:00,,0828.1,4.99,0.00,30.6,29.2,00.0,39.4,32.4,22.9,0000.0,0008.28,0003.68,0003.16
2022-09-16 06:26:00,,0828.1,5.01,0.00,30.6,29.2,00.0,39.4,32.4,22.6,0000.0,0008.23,0003.66,0003.15
2022-09-16 06:27:00,,0828.1,4.99,0.00,30.6,29.2,00.0,39.4,32.4,22.6,0000.0,0008.31,0003.63,0003.13
2022-09-16 06:28:00,,0828.0,5.01,0.00,30.6,29.2,00.0,39.4,32.4,22.4,0000.0,0008.43,0003.59,0003.09
2022-09-16 06:29:00,,0828.0,4.99,0.00,30.7,29.2,00.0,39.4,32.4,22.4,0000.0,0008.75,0003.55,0003.06
2022-09-16 06:30:00,,0828.0,5.01,0.00,30.7,29.2,00.0,39.4,32.4,22.4,0000.0,0008.82,0003.50,0003.01
2022-09-16 06:31:00,,0828.0,5.00,0.00,30.7,29.3,00.0,39.4,32.4,22.4,0000.0,0009.14,0003.46,0002.95
2022-09-16 06:32:00,,0828.0,5.01,0.00,30.7,29.3,00.0,39.4,32.5,22.4,0000.0,0009.76,0003.46,0002.91
2022-09-16 06:33:00,,0828.0,5.00,0.00,30.7,29.3,00.0,39.4,32.4,22.3,0000.0,0009.97,0003.43,0002.87
2022-09-16 06:34:00,,0828.0,5.00,0.00,30.7,29.2,00.0,39.4,32.4,22.4,0000.0,0009.57,0003.38,0002.84
2022-09-16 06:35:00,,0828.0,4.99,0.00,30.7,29.2,00.0,39.4,32.4,22.4,0000.0,0008.77,0003.39,0002.82
2022-09-16 06:36:00,,0828.1,5.01,0.00,30.7,29.2,00.0,39.4,32.5,22.3,0000.0,0008.82,0003.40,0002.82
2022-09-16 06:37:00,,0828.0,4.99,0.00,30.7,29.2,00.0,39.4,32.5,22.3,0000.0,0009.00,0003.43,0002.83
2022-09-16 06:38:00,,0828.0,5.01,0.00,30.7,29.2,00.0,39.4,32.4,22.3,0000.0,0009.69,0003.46,0002.84
2022-09-16 06:39:00,,0827.9,4.99,0.00,30.7,29.2,00.0,39.5,32.5,22.3,0000.0,0009.75,0003.47,0002.85
2022-09-16 06:40:00,,0827.9,5.01,0.00,30.7,29.2,00.0,39.5,32.5,22.3,0000.0,0009.22,0003.46,0002.85
2022-09-16 06:41:00,,0828.0,4.99,0.00,30.7,29.2,00.0,39.5,32.5,22.4,0000.0,0009.06,0003.48,0002.87
2022-09-16 06:42:00,,0828.0,5.01,0.00,30.7,29.2,00.0,39.5,32.5,22.5,0000.0,0008.59,0003.47,0002.90
2022-09-16 06:43:00,,0828.0,4.98,0.00,30.7,29.2,00.0,39.5,32.4,22.5,0000.0,0007.79,0003.45,0002.92
2022-09-16 06:44:00,,0828.0,5.01,0.00,30.7,29.2,00.0,39.5,32.5,22.5,0000.0,0007.66,0003.47,0002.93
2022-09-16 06:45:00,,0827.9,4.99,0.00,30.7,29.2,00.0,39.5,32.5,22.4,0000.0,0007.78,0003.51,0002.96
2022-09-16 06:46:00,,0827.9,5.01,0.00,30.7,29.2,00.0,39.5,32.5,22.4,0000.0,0007.85,0003.48,0002.97
2022-09-16 06:47:00,,0827.8,4.98,0.00,30.7,29.2,00.0,39.5,32.5,22.4,0000.0,0008.06,0003.48,0002.97
2022-09-16 06:48:00,,0827.9,5.00,0.00,30.7,29.2,00.0,39.5,32.5,22.7,0000.0,0007.88,0003.47,0002.99
2022-09-16 06:49:00,,0827.9,4.99,0.00,30.7,29.2,00.0,39.5,32.5,23.0,0000.0,0007.02,0003.47,0003.01
2022-09-16 06:50:00,,0827.9,5.01,0.00,30.7,29.2,00.0,39.5,32.5,23.1,0000.0,0006.91,0003.49,0003.05
2022-09-16 06:51:00,,0827.9,4.99,0.00,30.7,29.2,00.0,39.5,32.5,23.0,0000.0,0007.06,0003.52,0003.08
2022-09-16 06:52:00,,0827.9,5.00,0.00,30.7,29.2,00.0,39.5,32.5,22.9,0000.0,0007.34,0003.58,0003.11
2022-09-16 06:53:00,,0827.9,5.01,0.00,30.7,29.2,00.0,39.5,32.5,22.7,0000.0,0007.53,0003.61,0003.10
2022-09-16 06:54:00,,0828.0,4.99,0.00,30.7,29.2,00.0,39.5,32.5,22.7,0000.0,0007.52,0003.60,0003.08
2022-09-16 06:55:00,,0828.0,5.00,0.00,30.7,29.3,00.0,39.5,32.5,22.7,0000.0,0007.40,0003.58,0003.08
2022-09-16 06:56:00,,0828.0,5.00,0.00,30.7,29.3,00.0,39.5,32.5,23.0,0000.0,0007.36,0003.57,0003.08
2022-09-16 06:57:00,,0827.9,5.01,0.00,30.7,29.2,00.0,39.5,32.5,23.1,0000.0,0007.12,0003.56,0003.09
2022-09-16 06:58:00,,0827.9,5.01,0.00,30.7,29.2,00.0,39.5,32.5,23.0,0000.0,0006.77,0003.61,0003.10
2022-09-16 06:59:00,,0827.8,5.00,0.00,30.7,29.3,00.0,39.5,32.5,22.6,0000.0,0006.48,0003.59,0003.10
